Regional Weather Roundup
Issued by NWS

Home | Current Version | Previous Version | Text Only | Print | Product List | Glossary On
Versions: 1 2 3 4 5 6 7 8 9 10 11 12 13 14 15 16 17 18 19 20 21 22 23 24 25 26 27 28 29 30 31 32 33 34 35 36 37 38 39 40 41 42 43 44 45 46 47 48 49 50
000
ASUS46 KPQR 300410
RWROR

OREGON REGIONAL WEATHER ROUNDUP
NATIONAL WEATHER SERVICE PORTLAND OR
900 PM PDT SAT AUG 29 2015

NOTE: "FAIR" INDICATES FEW OR NO CLOUDS BELOW 12,000 FEET WITH
NO SIGNIFICANT WEATHER AND/OR OBSTRUCTIONS TO VISIBILITY.

ORZ001>013-300500-
NORTHWEST OREGON


CITY           SKY/WX    TMP DP  RH WIND       PRES   REMARKS
ASTORIA        LGT RAIN  58  56  93 S12       29.78S
NEWPORT        MOCLDY    61  59  94 S24G40    29.88S
PORTLAND       MOCLDY    68  58  70 S9        29.84R
VANCOUVER WA   CLOUDY    68  56  65 SE8       29.83R
SCAPPOOSE      CLOUDY    68  51  54 S7        29.81R
HILLSBORO      CLOUDY    68  51  54 S8        29.82R
AURORA         PTCLDY    65  57  75 S8        29.85R
MCMINNVILLE    CLOUDY    67  53  61 SW12      29.84R
SALEM          PTCLDY    66  56  70 S15       29.84S
CORVALLIS      PTCLDY    63  55  77 S12       29.88S
EUGENE         MOCLDY    66  56  70 SW10      29.89R
$$

ORZ021-028-300500-
SOUTHWEST OREGON


CITY           SKY/WX    TMP DP  RH WIND       PRES   REMARKS
NORTH BEND     PTCLDY    63  61  94 S7G16     29.92R
BROOKINGS      LGT RAIN  62  62 100 S9        30.00R FOG
ROSEBURG       PTCLDY    69  51  52 CALM      29.90R
SEXTON SUMMIT  MOCLDY    52  46  80 S16G24    29.99F
MEDFORD        CLEAR     69  49  48 W6        29.93R
$$

ORZ014>016-041-300500-
COLUMBIA GORGE


CITY           SKY/WX    TMP DP  RH WIND       PRES   REMARKS
TROUTDALE      CLOUDY    66  58  75 SE7       29.84S
THE DALLES     PTCLDY    67  54  63 NW12      29.82R
$$

ORZ029>031-041-044-049-050-061>064-502-503-505>511-300500-
EASTERN OREGON


CITY           SKY/WX    TMP DP  RH WIND       PRES   REMARKS
REDMOND        PTCLDY    63  38  39 SW5       29.91R
BEND           CLEAR     63  37  39 SW6       29.93R
PRINEVILLE     CLEAR     61  37  41 SW6       29.92R
KLAMATH FALLS  CLOUDY    61  43  51 W6        30.00R
LAKEVIEW       PTCLDY    61  39  44 SW16      30.01R
HERMISTON      PTCLDY    68  47  46 W8        29.82R
PENDLETON      MOCLDY    68  43  40 S5        29.86R
JOHN DAY       CLEAR     67  39  35 W6        29.92R
MEACHAM        PTCLDY    56  41  57 CALM      29.95R
LA GRANDE      PTCLDY    64  36  34 NW9       29.90R
BAKER CITY     CLEAR     60  43  53 W10       29.90R
BURNS          PTCLDY    62  31  31 SW8       29.92R
ROME             N/A     76  36  23 SW14      29.90R
ONTARIO        MOCLDY    74  50  42 CALM      29.79R
$$


USA.gov is the U.S. government's official web portal to all federal, state and local government web resources and services.